sat.trackr.live / text

‹ back to catalog

STARLINK-32907

NORAD 63095 · 2025-037U

PAYLOAD ACTIVE UNKNOWN

§ Identity

Operator
Country
US
Launch date
2025-02-23
Launch site
AFWTR
Launch vehicle
Mass (kg)
RCS (m²)

Purposes: comms

External: N2YO · Heavens-Above · Gunter

§ Orbital elements

Epoch: 2026-09-20T14:02:39.457824Z

Period
94.14 min
Inclination
70.0008°
Eccentricity
0.0002283
Mean motion
15.29594360 rev/d
Perigee alt
475.5 km
Apogee alt
478.6 km
Semi-major
6,855.2 km
B*
4.0875e-4
RAAN
220.7331°
Arg perigee
279.1923°
Mean anomaly
80.8994°
Rev number
8,780

§ Raw data

STARLINK-329071 63095U 25037U   26263.58517891  .00011645  00000+0  40875-3 0  99962 63095  70.0008 220.7331 0002283 279.1923  80.8994 15.29594360 87801

JSON: /api/v1/satellites/63095 · /tle

For live sub-satellite position, see the globe view (requires WebGL).

§ Visibility from observer

Set your observer location to see the next 7 days of passes ≥ 10°. The values pass through the URL so the page stays shareable.

No JS? Fill the form by hand. The geolocation button needs JavaScript.